When you browse on this site, cookies collect data to enhance your experience and personalize the content and advertising you see.
Visit our Privacy Policy to learn more. By continuing to use the site, you agree to this use of cookies and data.

Stündliche Wetter Bristol

Heute, 2 Juli, Donnerstag

Zeit Temperatur Niederschläge Wind Luftdruck Luftfeuchtigkeit
00:00 +11°C° 0 mm 3 m/S 754 mmHg 95%
01:00 +11°C° 0 mm 3 m/S 754 mmHg 95%
02:00 +11°C° 0 mm 3 m/S 754 mmHg 95%
03:00 +11°C° 0 mm 3 m/S 754 mmHg 95%
04:00 +11°C° 0 mm 3 m/S 754 mmHg 94%
05:00 +12°C° 0 mm 4 m/S 755 mmHg 93%
06:00 +13°C° 0 mm 4 m/S 755 mmHg 92%
07:00 +14°C° 0.3 mm 5 m/S 755 mmHg 89%
08:00 +15°C° 0.3 mm 5 m/S 755 mmHg 86%
09:00 +16°C° 0.3 mm 6 m/S 756 mmHg 84%
10:00 +16°C° 0.3 mm 6 m/S 756 mmHg 81%
11:00 +17°C° 0.3 mm 6 m/S 756 mmHg 79%
12:00 +19°C° 0.3 mm 6 m/S 757 mmHg 77%
13:00 +19°C° 0.3 mm 6 m/S 757 mmHg 76%
14:00 +18°C° 0.3 mm 7 m/S 757 mmHg 76%
15:00 +18°C° 0.3 mm 7 m/S 757 mmHg 75%
16:00 +19°C° 0.1 mm 6 m/S 758 mmHg 77%
17:00 +17°C° 0.1 mm 6 m/S 758 mmHg 79%
18:00 +17°C° 0.1 mm 6 m/S 758 mmHg 81%
19:00 +16°C° 0 mm 5 m/S 759 mmHg 85%
20:00 +14°C° 0 mm 5 m/S 759 mmHg 88%
21:00 +13°C° 0 mm 4 m/S 760 mmHg 92%
22:00 +13°C° 0 mm 4 m/S 760 mmHg 92%
23:00 +12°C° 0 mm 4 m/S 760 mmHg 92%

Morgen, 3 Juli, Freitag

Zeit Temperatur Niederschläge Wind Luftdruck Luftfeuchtigkeit
00:00 +12°C° 0 mm 3 m/S 760 mmHg 92%
01:00 +12°C° 0 mm 3 m/S 760 mmHg 93%
02:00 +11°C° 0 mm 3 m/S 760 mmHg 94%
03:00 +11°C° 0 mm 4 m/S 760 mmHg 94%
04:00 +12°C° 0 mm 4 m/S 760 mmHg 93%
05:00 +12°C° 0 mm 5 m/S 760 mmHg 91%
06:00 +13°C° 0 mm 5 m/S 760 mmHg 90%
07:00 +14°C° 0 mm 6 m/S 760 mmHg 86%
08:00 +14°C° 0 mm 6 m/S 760 mmHg 83%
09:00 +15°C° 0 mm 7 m/S 760 mmHg 79%
10:00 +15°C° 0 mm 7 m/S 760 mmHg 79%
11:00 +16°C° 0 mm 8 m/S 760 mmHg 79%
12:00 +16°C° 0 mm 8 m/S 760 mmHg 79%
13:00 +16°C° 0.1 mm 8 m/S 759 mmHg 81%
14:00 +16°C° 0.1 mm 7 m/S 759 mmHg 84%
15:00 +16°C° 0.1 mm 7 m/S 759 mmHg 86%
16:00 +16°C° 0.1 mm 7 m/S 759 mmHg 87%
17:00 +16°C° 0.1 mm 7 m/S 759 mmHg 88%
18:00 +15°C° 0.1 mm 7 m/S 759 mmHg 89%
19:00 +15°C° 0.2 mm 7 m/S 759 mmHg 91%
20:00 +15°C° 0.2 mm 6 m/S 759 mmHg 92%
21:00 +15°C° 0.2 mm 6 m/S 759 mmHg 94%
22:00 +15°C° 0.2 mm 6 m/S 758 mmHg 94%
23:00 +16°C° 0.2 mm 6 m/S 758 mmHg 94%

übermorgen, 4 Juli, Samstag

Zeit Temperatur Niederschläge Wind Luftdruck Luftfeuchtigkeit
00:00 +16°C° 0.2 mm 6 m/S 758 mmHg 95%
01:00 +16°C° 0.2 mm 6 m/S 758 mmHg 95%
02:00 +16°C° 0.2 mm 6 m/S 758 mmHg 95%
03:00 +16°C° 0.2 mm 6 m/S 757 mmHg 95%
04:00 +16°C° 0.2 mm 6 m/S 757 mmHg 95%
05:00 +17°C° 0.2 mm 6 m/S 757 mmHg 94%
06:00 +17°C° 0.2 mm 6 m/S 757 mmHg 94%
07:00 +17°C° 0.3 mm 6 m/S 757 mmHg 94%
08:00 +17°C° 0.3 mm 6 m/S 757 mmHg 94%
09:00 +17°C° 0.3 mm 6 m/S 757 mmHg 95%
10:00 +17°C° 0.5 mm 6 m/S 757 mmHg 95%
11:00 +17°C° 0.5 mm 6 m/S 757 mmHg 95%
12:00 +17°C° 0.5 mm 6 m/S 757 mmHg 95%
13:00 +17°C° 0.1 mm 6 m/S 757 mmHg 95%
14:00 +17°C° 0.1 mm 6 m/S 757 mmHg 94%
15:00 +17°C° 0.1 mm 6 m/S 757 mmHg 94%
16:00 +17°C° 0.1 mm 6 m/S 757 mmHg 93%
17:00 +17°C° 0.1 mm 6 m/S 757 mmHg 92%
18:00 +17°C° 0.1 mm 6 m/S 757 mmHg 90%
19:00 +16°C° 0 mm 6 m/S 757 mmHg 91%
20:00 +16°C° 0 mm 6 m/S 758 mmHg 92%
21:00 +15°C° 0 mm 5 m/S 758 mmHg 93%
22:00 +16°C° 0 mm 6 m/S 758 mmHg 93%
23:00 +16°C° 0 mm 6 m/S 757 mmHg 93%

5 Juli, Sonntag

Zeit Temperatur Niederschläge Wind Luftdruck Luftfeuchtigkeit
00:00 +16°C° 0 mm 7 m/S 757 mmHg 93%
01:00 +16°C° 0.1 mm 7 m/S 757 mmHg 93%
02:00 +16°C° 0.1 mm 7 m/S 757 mmHg 93%
03:00 +17°C° 0.1 mm 7 m/S 756 mmHg 93%
04:00 +17°C° 0.2 mm 7 m/S 756 mmHg 93%
05:00 +17°C° 0.2 mm 7 m/S 756 mmHg 93%
06:00 +17°C° 0.2 mm 8 m/S 756 mmHg 93%
07:00 +17°C° 0.3 mm 8 m/S 756 mmHg 93%
08:00 +17°C° 0.3 mm 8 m/S 756 mmHg 93%
09:00 +17°C° 0.3 mm 8 m/S 756 mmHg 93%
10:00 +17°C° 0.1 mm 9 m/S 756 mmHg 91%
11:00 +18°C° 0.1 mm 9 m/S 756 mmHg 88%
12:00 +18°C° 0.1 mm 9 m/S 756 mmHg 86%
13:00 +18°C° 0.1 mm 9 m/S 757 mmHg 81%
14:00 +18°C° 0.1 mm 9 m/S 757 mmHg 77%
15:00 +18°C° 0.1 mm 10 m/S 757 mmHg 72%
16:00 +18°C° 0 mm 9 m/S 757 mmHg 73%
17:00 +17°C° 0 mm 9 m/S 757 mmHg 73%
18:00 +16°C° 0 mm 8 m/S 758 mmHg 74%
19:00 +15°C° 0 mm 7 m/S 758 mmHg 75%
20:00 +14°C° 0 mm 7 m/S 758 mmHg 75%
21:00 +13°C° 0 mm 6 m/S 759 mmHg 76%
22:00 +13°C° 0 mm 6 m/S 759 mmHg 78%
23:00 +11°C° 0 mm 6 m/S 759 mmHg 80%

6 Juli, Montag

Zeit Temperatur Niederschläge Wind Luftdruck Luftfeuchtigkeit
00:00 +11°C° 0 mm 6 m/S 759 mmHg 83%
01:00 +11°C° 0 mm 6 m/S 759 mmHg 83%
02:00 +10°C° 0 mm 6 m/S 759 mmHg 83%
03:00 +10°C° 0 mm 5 m/S 759 mmHg 83%
04:00 +10°C° 0 mm 6 m/S 759 mmHg 82%
05:00 +11°C° 0 mm 6 m/S 759 mmHg 82%
06:00 +11°C° 0 mm 6 m/S 759 mmHg 82%
07:00 +13°C° 0 mm 6 m/S 760 mmHg 77%
08:00 +14°C° 0 mm 7 m/S 760 mmHg 73%
09:00 +15°C° 0 mm 7 m/S 760 mmHg 68%
10:00 +16°C° 0 mm 7 m/S 761 mmHg 67%
11:00 +16°C° 0 mm 7 m/S 761 mmHg 65%
12:00 +17°C° 0 mm 7 m/S 761 mmHg 64%
13:00 +17°C° 0 mm 6 m/S 762 mmHg 64%
14:00 +17°C° 0 mm 6 m/S 762 mmHg 64%
15:00 +17°C° 0 mm 6 m/S 762 mmHg 64%
16:00 +17°C° 0 mm 6 m/S 762 mmHg 65%
17:00 +17°C° 0 mm 5 m/S 762 mmHg 67%
18:00 +16°C° 0 mm 5 m/S 763 mmHg 69%
19:00 +15°C° 0 mm 4 m/S 763 mmHg 73%
20:00 +13°C° 0 mm 4 m/S 764 mmHg 77%
21:00 +12°C° 0 mm 3 m/S 764 mmHg 81%
22:00 +11°C° 0 mm 3 m/S 764 mmHg 82%
23:00 +12°C° 0 mm 2 m/S 764 mmHg 83%

7 Juli, Dienstag

Zeit Temperatur Niederschläge Wind Luftdruck Luftfeuchtigkeit
00:00 +10°C° 0 mm 2 m/S 765 mmHg 85%
01:00 +10°C° 0 mm 2 m/S 765 mmHg 86%
02:00 +9°C° 0 mm 2 m/S 765 mmHg 87%
03:00 +9°C° 0 mm 2 m/S 765 mmHg 88%
04:00 +10°C° 0 mm 1 m/S 766 mmHg 85%
05:00 +11°C° 0 mm 1 m/S 766 mmHg 83%
06:00 +12°C° 0 mm 1 m/S 766 mmHg 81%
07:00 +13°C° 0 mm 2 m/S 767 mmHg 76%
08:00 +14°C° 0 mm 2 m/S 767 mmHg 72%
09:00 +14°C° 0 mm 3 m/S 767 mmHg 67%
10:00 +16°C° 0 mm 3 m/S 767 mmHg 65%
11:00 +17°C° 0 mm 2 m/S 767 mmHg 62%
12:00 +18°C° 0 mm 2 m/S 767 mmHg 60%
13:00 +18°C° 0 mm 2 m/S 767 mmHg 60%
14:00 +18°C° 0 mm 3 m/S 767 mmHg 60%
15:00 +19°C° 0 mm 3 m/S 767 mmHg 61%
16:00 +18°C° 0 mm 3 m/S 767 mmHg 64%
17:00 +18°C° 0 mm 3 m/S 767 mmHg 68%
18:00 +17°C° 0 mm 3 m/S 767 mmHg 72%
19:00 +16°C° 0 mm 2 m/S 767 mmHg 76%
20:00 +14°C° 0 mm 2 m/S 767 mmHg 80%
21:00 +13°C° 0 mm 2 m/S 767 mmHg 84%
22:00 +12°C° 0 mm 1 m/S 767 mmHg 84%
23:00 +12°C° 0 mm 1 m/S 767 mmHg 85%
Mehr zeigen